STARLINK-32495, 62052

Orbit data source: Space-Track

STARLINK-32495, 62052 is a payload satellite owned by SpaceX/Seattle (US) in LEO that was launched on Thu, 21 Nov 2024 UTC via an FALCON 9 launch vehicle from the Air Force Eastern Test Range (AFETR). Payloads include a variety of satellites, spacecraft, and rockets equipped with specific instruments for various scientific and technological missions. These include communications satellites like Starlink; space stations such as the ISS; scientific satellites like the Hubble; Earth observation satellites from companies like Planet Labs, Umbra, and HawkEye 360; GPS; miniature CubeSats for education and research; and military/defense satellites.

Loading next visibility...
STARLINK-32495 details
Identifier
62052, 2024-216W
Orbit
LEO
Last TLE update11 hours ago
Origin
Flag of USSpaceX/Seattle (US)
ManufacturerSpaceX/Seattle
MissionOperational spacecraft
Bus & MotorSTARLINK V2M, Unknown motor
Mass730 kg wet, ~700 kg dry
Launch date (UTC)
2024-11-21 (3 weeks ago)
Launch vehicle
FALCON 9
Launch site
Air Force Eastern Test Range (AFETR)
Object type
Payload
Rocket body
Debris
Shape & HBRUnknown
Radar Cross SectionLarge (>1 m²)

Expand to show TLE details & history

TLE from 11 hours ago
0 STARLINK-32495
1 62052U 24216W   24348.50002315 -.00010872  00000-0 -17970-3 0  9994
2 62052  42.9995 307.3297 0001123 278.8967 209.6880 15.50589090  3446
Epoch: 2024-12-13T12:00Z
Definitive object data (Epoch: 2024-12-13T12:00:02Z)
Latitude32.34245°
Longitude-177.81835°
Altitude416.626 km
Speed7.666 km/s
True Right ascension05h 39m 25s
True Declination32° 10' 46"
Sunlit
Object was in full shadow at TLE epoch
Visualization TLE readout
Latitude19.25371°
Longitude-159.87443°
Altitude414.814 km
Speed7.665 km/s
Apparent Right ascension07h 58m 18s
Apparent Declination-9° 47' 57"
Sunlit
Object is in full shadow
Visualization observer readout
Local Sidereal Time21:27:08
Azimuth39.314° NE
Elevation-53.992°
Doppler factor1
Orbital elements
Apogee altitude417.733 km
Perigee altitude416.207 km
Semi-major axis6,795.107 km
Eccentricity0.0001123
Inclination42.9995°
RAAN307.3297°
Arg. of periapsis278.8967°
True anomaly209.68163°
Mean anomaly209.688°
Eccentric anomaly209.68481°
Mean motion3.8748 °/min
BSTAR-0.0001797
Orbital period92.91 mins
Loading maneuver chart data...
Loading historical data...
Loading historical data...
Loading historical data...
Loading historical data...
Loading historical data...
Loading historical data...
Loading historical data...

STARLINK-32495 Visibility forecast

Observer location: undefined°, undefined

Span
Click to sort rows by Start time (UTC) header in descending order
Start Az.
Max El. time (UTC)
Max El. Az.
Max El.
End time (UTC)
End Az.
5 mins2024-12-14 01:37:09.383Z237.544° WSW2024-12-14 01:39:09.383Z117.472° SE42.363°2024-12-14 01:42:09.383Z74.287° E
4 mins2024-12-14 03:15:09.383Z297.908° NW2024-12-14 03:16:09.383Z338.059° N36.464°2024-12-14 03:19:09.383Z69.792° E
5 mins2024-12-14 04:52:09.383Z295.52° NW2024-12-14 04:54:09.383Z25.142° NE42.158°2024-12-14 04:57:09.383Z95.87° ESE
4 mins2024-12-14 06:30:09.383Z251.096° W2024-12-14 06:31:09.383Z218.238° SW28.37°2024-12-14 06:34:09.383Z145.496° SSE
|